This is the latest recevied weather packets stored in our database for station/object N8DMH-13. If no packets are shown the sender has not sent any weather packets the latest 10 day(s).
| Time | Temp. | Humidity | Pressure | Rain* | Wind** | Luminosity | Snow |
|---|---|---|---|---|---|---|---|
| 1777997524 | 10.56° C | 41% | 1006 hPa | 0 mm | - | - | - |
| 1777997194 | 10.56° C | 44% | 1005.9 hPa | 0 mm | - | - | - |
| 1777996894 | 11.11° C | 45% | 1006 hPa | 0 mm | - | - | - |
| 1777996594 | 10.56° C | 44% | 1005.9 hPa | 0 mm | - | - | - |
| 1777996265 | 10.56° C | 45% | 1005.8 hPa | 0 mm | - | - | - |
| 1777995964 | 10.56° C | 44% | 1005.7 hPa | 0 mm | - | - | - |
| 1777995634 | 10.56° C | 44% | 1005.8 hPa | 0 mm | - | - | - |
| 1777995333 | 10.56° C | 45% | 1005.9 hPa | 0 mm | - | - | - |
| 1777995033 | 10.56° C | 45% | 1006 hPa | 0 mm | - | - | - |
| 1777994705 | 10° C | 48% | 1006 hPa | 0 mm | - | - | - |
| 1777994403 | 10° C | 48% | 1005.8 hPa | 0 mm | - | - | - |
| 1777994073 | 10° C | 47% | 1005.7 hPa | 0 mm | - | - | - |
| 1777993743 | 10° C | 47% | 1005.6 hPa | 0 mm | - | - | - |
| 1777993443 | 10° C | 48% | 1005.6 hPa | 0 mm | - | - | - |
| 1777993113 | 10.56° C | 47% | 1005.7 hPa | 0 mm | - | - | - |
| 1777992782 | 10.56° C | 46% | 1005.7 hPa | 0 mm | - | - | - |
| 1777992482 | 10° C | 47% | 1005.6 hPa | 0 mm | - | - | - |
| 1777992153 | 10° C | 47% | 1005.6 hPa | 0 mm | - | - | - |
| 1777991822 | 10° C | 46% | 1005.5 hPa | 0 mm | - | - | - |
| 1777991522 | 10° C | 46% | 1005.5 hPa | 0 mm | - | - | - |
| 1777991222 | 10° C | 47% | 1005.5 hPa | 0 mm | - | - | - |
| 1777990892 | 10° C | 46% | 1005.4 hPa | 0 mm | - | - | - |
| 1777990592 | 10° C | 52% | 1005.5 hPa | 0 mm | - | - | - |
| 1777989962 | 9.44° C | 50% | 1005.4 hPa | 0 mm | - | - | - |
| 1777989632 | 9.44° C | 53% | 1005.4 hPa | 0 mm | - | - | - |
* Rain latest hour (hover to see other rain measurements)
** Current wind speed in m/s (hover to see current wind gust speed)